STARLINK-37970, 69706

Orbit data source: Space-Track

STARLINK-37970, 69706 is a payload satellite owned by SpaceX/Seattle (US) in SSO that was launched on Sun, 28 Jun 2026 UTC via an FALCON 9 launch vehicle from the Air Force Western Test Range (AFWTR). Payload-class satellites include a variety of spacecraft equipped with specific instruments for various scientific and technological missions. These include communications satellites like Starlink; space stations such as the ISS; scientific satellites like the Hubble; Earth observation satellites from companies like Planet Labs, Umbra, and HawkEye 360; GPS; miniature CubeSats for education and research; and military/defense satellites.

Loading next visibility...
Identifier
69706, 2026-147C
Orbit
SSO
Country
Flag of USUS
Related business
Manufacturer
SpaceX/Seattle
Mission
Operational Commercial Communications
Bus & Motor
STARLINK V2MO, Unknown motor
Mass
575 kg wet, ~530 kg dry
Launch date (UTC)
2026-06-28 (2 months ago)
Launch vehicle
FALCON 9
Launch site
Air Force Western Test Range (AFWTR)
Object type
Payload
Rocket body
Debris
Shape & HBR
Box + 1 Pan, 17.7 m
Radar Cross Section
41.120 m², Large (>1 m²)

Expand to show TLE details & history
Last TLE update: 10 hours ago

TLE from 10 hours ago
0 STARLINK-37970
1 69706U 26147C   26237.09985135  .00015060  00000-0  46802-3 0  9993
2 69706  97.2823 273.7706 0001230  92.0122 268.1262 15.33435495 10184
Epoch: 2026-08-25T02:23Z
TLE epoch observation values (Epoch: 2026-08-25T02:23:47.156Z)
Latitude
Longitude
-95.54794°
Altitude
468.711 km
Speed
7.632 km/s
True Right ascension
18h 15m 04s
True Declination
0° 00' 00"
Sunlit
Object was in full shadow at epoch
Visualization orbit readout
Latitude
Unknown
Longitude
Unknown
Altitude
Unknown
Speed
Unknown
Apparent Right ascension
Unknown
Apparent Declination
Unknown
Sunlit
N/A
Visualization observer readout
Local Sidereal Time
03:27:32
Azimuth
Unknown
Elevation
Unknown
Doppler factor
Unknown
Orbital elements
Apogee altitude
463.356 km
Perigee altitude
461.673 km
Semi-major axis
6,840.651 km
Eccentricity
0.00012
Inclination
97.2823°
RAAN
273.7706°
Arg. of periapsis
92.0122°
True anomaly
268.11211°
Mean anomaly
268.1262°
Eccentric anomaly
268.11916°
Mean motion
3.83616 °/min
Orbital period
93.84 mins
BSTAR
0.00046802
Loading maneuver chart data...
Computing Atmospheric mass density...
Loading historical data...
Loading historical data...
Loading historical data...
Loading historical data...
Loading historical data...
Loading historical data...
Loading historical data...

Documentation

Showing up to 5 results
|